When you browse on this site, cookies collect data to enhance your experience and personalize the content and advertising you see.
Visit our Privacy Policy to learn more. By continuing to use the site, you agree to this use of cookies and data.
  • In Czech Republic
  • List of Countries
  • For 7 days
  • Water Temperature
  • Weather Map
  • Weather Widgets
  • user-avatar
    Login

    Hourly Weather Visby

    Today, 4 June, Thursday

    Time Temperature Precipitation Wind Pressure Humidity
    00:00 +9°C° 0 mm 3 mps 751 mmHg 82%
    01:00 +9°C° 0 mm 3 mps 751 mmHg 84%
    02:00 +9°C° 0 mm 3 mps 750 mmHg 85%
    03:00 +9°C° 0 mm 3 mps 750 mmHg 86%
    04:00 +9°C° 0 mm 3 mps 750 mmHg 87%
    05:00 +11°C° 0 mm 3 mps 750 mmHg 80%
    06:00 +13°C° 0 mm 3 mps 749 mmHg 73%
    07:00 +15°C° 0 mm 2 mps 749 mmHg 65%
    08:00 +16°C° 0 mm 3 mps 749 mmHg 62%
    09:00 +17°C° 0 mm 4 mps 749 mmHg 60%
    10:00 +17°C° 0 mm 4 mps 749 mmHg 57%
    11:00 +17°C° 0 mm 4 mps 749 mmHg 56%
    12:00 +18°C° 0 mm 4 mps 748 mmHg 55%
    13:00 +18°C° 0 mm 4 mps 748 mmHg 54%
    14:00 +18°C° 0 mm 4 mps 748 mmHg 55%
    15:00 +17°C° 0 mm 3 mps 747 mmHg 56%
    16:00 +17°C° 0 mm 3 mps 747 mmHg 58%
    17:00 +16°C° 0 mm 3 mps 747 mmHg 64%
    18:00 +15°C° 0 mm 2 mps 747 mmHg 70%
    19:00 +14°C° 0 mm 2 mps 746 mmHg 76%
    20:00 +12°C° 0 mm 3 mps 746 mmHg 83%
    21:00 +11°C° 0 mm 3 mps 746 mmHg 89%
    22:00 +10°C° 0 mm 3 mps 746 mmHg 96%
    23:00 +10°C° 0 mm 3 mps 745 mmHg 96%

    Tomorrow, 5 June, Friday

    Time Temperature Precipitation Wind Pressure Humidity
    00:00 +9°C° 0 mm 3 mps 745 mmHg 96%
    01:00 +9°C° 0 mm 3 mps 745 mmHg 96%
    02:00 +10°C° 0 mm 3 mps 745 mmHg 96%
    03:00 +10°C° 0 mm 3 mps 744 mmHg 96%
    04:00 +10°C° 0 mm 4 mps 744 mmHg 96%
    05:00 +11°C° 0 mm 4 mps 744 mmHg 88%
    06:00 +13°C° 0 mm 4 mps 744 mmHg 81%
    07:00 +15°C° 0 mm 4 mps 744 mmHg 74%
    08:00 +15°C° 0 mm 4 mps 743 mmHg 69%
    09:00 +16°C° 0 mm 5 mps 743 mmHg 64%
    10:00 +16°C° 0 mm 5 mps 743 mmHg 60%
    11:00 +16°C° 0 mm 5 mps 743 mmHg 60%
    12:00 +16°C° 0 mm 6 mps 743 mmHg 61%
    13:00 +15°C° 0 mm 6 mps 743 mmHg 61%
    14:00 +14°C° 0.3 mm 5 mps 742 mmHg 70%
    15:00 +13°C° 0.3 mm 5 mps 742 mmHg 79%
    16:00 +12°C° 0.3 mm 4 mps 742 mmHg 88%
    17:00 +12°C° 1.6 mm 4 mps 742 mmHg 90%
    18:00 +12°C° 1.6 mm 5 mps 742 mmHg 93%
    19:00 +10°C° 1.6 mm 5 mps 741 mmHg 95%
    20:00 +11°C° 1.7 mm 4 mps 741 mmHg 96%
    21:00 +11°C° 1.7 mm 4 mps 741 mmHg 97%
    22:00 +11°C° 1.7 mm 3 mps 741 mmHg 98%
    23:00 +11°C° 0.2 mm 3 mps 741 mmHg 97%

    Day after tomorrow, 6 June, Saturday

    Time Temperature Precipitation Wind Pressure Humidity
    00:00 +11°C° 0.2 mm 3 mps 741 mmHg 97%
    01:00 +11°C° 0.2 mm 4 mps 740 mmHg 96%
    02:00 +10°C° 0 mm 4 mps 740 mmHg 95%
    03:00 +10°C° 0 mm 4 mps 740 mmHg 94%
    04:00 +8°C° 0 mm 5 mps 739 mmHg 93%
    05:00 +9°C° 0.6 mm 6 mps 739 mmHg 93%
    06:00 +10°C° 0.6 mm 7 mps 739 mmHg 94%
    07:00 +10°C° 0.6 mm 8 mps 739 mmHg 94%
    08:00 +11°C° 0.4 mm 9 mps 740 mmHg 84%
    09:00 +12°C° 0.4 mm 10 mps 740 mmHg 74%
    10:00 +13°C° 0.4 mm 12 mps 740 mmHg 65%
    11:00 +13°C° 0.1 mm 12 mps 741 mmHg 63%
    12:00 +13°C° 0.1 mm 12 mps 742 mmHg 62%
    13:00 +13°C° 0.1 mm 12 mps 742 mmHg 61%
    14:00 +13°C° 0 mm 13 mps 743 mmHg 60%
    15:00 +13°C° 0 mm 13 mps 744 mmHg 59%
    16:00 +13°C° 0 mm 13 mps 744 mmHg 58%
    17:00 +12°C° 0 mm 12 mps 745 mmHg 60%
    18:00 +12°C° 0 mm 12 mps 746 mmHg 63%
    19:00 +11°C° 0 mm 11 mps 746 mmHg 65%
    20:00 +11°C° 0 mm 10 mps 747 mmHg 70%
    21:00 +10°C° 0 mm 9 mps 747 mmHg 75%
    22:00 +9°C° 0 mm 8 mps 748 mmHg 81%
    23:00 +9°C° 0 mm 8 mps 748 mmHg 82%

    7 June, Sunday

    Time Temperature Precipitation Wind Pressure Humidity
    00:00 +9°C° 0 mm 7 mps 749 mmHg 84%
    01:00 +9°C° 0 mm 6 mps 749 mmHg 86%
    02:00 +9°C° 0 mm 6 mps 749 mmHg 87%
    03:00 +9°C° 0 mm 5 mps 749 mmHg 87%
    04:00 +9°C° 0 mm 5 mps 749 mmHg 88%
    05:00 +10°C° 0 mm 5 mps 750 mmHg 82%
    06:00 +13°C° 0 mm 5 mps 750 mmHg 76%
    07:00 +14°C° 0 mm 5 mps 750 mmHg 70%
    08:00 +15°C° 0 mm 5 mps 751 mmHg 67%
    09:00 +16°C° 0 mm 5 mps 751 mmHg 64%
    10:00 +16°C° 0 mm 6 mps 752 mmHg 60%
    11:00 +16°C° 0 mm 6 mps 752 mmHg 63%
    12:00 +16°C° 0 mm 7 mps 752 mmHg 66%
    13:00 +16°C° 0 mm 7 mps 752 mmHg 69%
    14:00 +16°C° 0 mm 7 mps 752 mmHg 70%
    15:00 +16°C° 0 mm 8 mps 752 mmHg 70%
    16:00 +15°C° 0 mm 8 mps 752 mmHg 70%
    17:00 +15°C° 0 mm 7 mps 752 mmHg 69%
    18:00 +14°C° 0 mm 7 mps 752 mmHg 69%
    19:00 +14°C° 0 mm 7 mps 752 mmHg 68%
    20:00 +12°C° 0 mm 7 mps 753 mmHg 73%
    21:00 +11°C° 0 mm 7 mps 753 mmHg 79%
    22:00 +10°C° 0 mm 6 mps 754 mmHg 84%
    23:00 +10°C° 0 mm 6 mps 754 mmHg 84%

    8 June, Monday

    Time Temperature Precipitation Wind Pressure Humidity
    00:00 +10°C° 0 mm 7 mps 754 mmHg 85%
    01:00 +10°C° 0 mm 7 mps 754 mmHg 85%
    02:00 +10°C° 0 mm 6 mps 754 mmHg 87%
    03:00 +10°C° 0 mm 6 mps 754 mmHg 89%
    04:00 +10°C° 0 mm 5 mps 755 mmHg 91%
    05:00 +12°C° 0 mm 5 mps 755 mmHg 85%
    06:00 +13°C° 0 mm 5 mps 756 mmHg 79%
    07:00 +14°C° 0 mm 5 mps 756 mmHg 73%
    08:00 +15°C° 0 mm 5 mps 757 mmHg 68%
    09:00 +17°C° 0 mm 4 mps 757 mmHg 63%
    10:00 +17°C° 0 mm 4 mps 757 mmHg 58%
    11:00 +18°C° 0 mm 4 mps 758 mmHg 56%
    12:00 +18°C° 0 mm 3 mps 758 mmHg 54%
    13:00 +19°C° 0 mm 3 mps 758 mmHg 52%
    14:00 +19°C° 0 mm 3 mps 758 mmHg 51%
    15:00 +20°C° 0 mm 2 mps 758 mmHg 50%
    16:00 +20°C° 0 mm 2 mps 758 mmHg 49%
    17:00 +19°C° 0 mm 2 mps 758 mmHg 56%
    18:00 +18°C° 0 mm 1 mps 758 mmHg 62%
    19:00 +16°C° 0 mm 1 mps 758 mmHg 69%
    20:00 +15°C° 0 mm 1 mps 758 mmHg 72%
    21:00 +14°C° 0 mm 1 mps 759 mmHg 74%
    22:00 +13°C° 0 mm 1 mps 759 mmHg 76%
    23:00 +12°C° 0 mm 2 mps 759 mmHg 77%

    9 June, Tuesday

    Time Temperature Precipitation Wind Pressure Humidity
    00:00 +11°C° 0 mm 3 mps 759 mmHg 79%
    01:00 +11°C° 0 mm 3 mps 759 mmHg 80%
    02:00 +12°C° 0 mm 4 mps 759 mmHg 76%
    03:00 +12°C° 0 mm 4 mps 758 mmHg 73%
    04:00 +13°C° 0 mm 4 mps 758 mmHg 70%
    05:00 +14°C° 0 mm 5 mps 758 mmHg 69%
    06:00 +14°C° 0 mm 6 mps 758 mmHg 67%
    07:00 +15°C° 0 mm 6 mps 758 mmHg 66%
    08:00 +15°C° 0 mm 7 mps 758 mmHg 67%
    09:00 +15°C° 0 mm 7 mps 758 mmHg 69%
    10:00 +16°C° 0 mm 7 mps 758 mmHg 70%
    11:00 +16°C° 0 mm 7 mps 758 mmHg 69%
    12:00 +17°C° 0 mm 8 mps 758 mmHg 69%
    13:00 +18°C° 0 mm 8 mps 757 mmHg 69%
    14:00 +18°C° 0 mm 8 mps 757 mmHg 69%
    15:00 +18°C° 0 mm 8 mps 757 mmHg 70%
    16:00 +18°C° 0 mm 8 mps 757 mmHg 71%
    17:00 +17°C° 0.1 mm 8 mps 756 mmHg 74%
    18:00 +17°C° 0.1 mm 7 mps 756 mmHg 77%
    19:00 +16°C° 0.1 mm 7 mps 756 mmHg 81%
    20:00 +16°C° 0.1 mm 7 mps 756 mmHg 83%
    21:00 +16°C° 0.1 mm 6 mps 756 mmHg 86%
    22:00 +16°C° 0.1 mm 6 mps 756 mmHg 89%
    23:00 +15°C° 0.5 mm 5 mps 755 mmHg 90%
    Show more